Showing default

FLOCK 4Q 6, 58315

Orbit data source: Space-Track

FLOCK 4Q 6, 58315 is a payload satellite owned by Planet (US) in SSO that was launched on Sat, 11 Nov 2023 UTC via an FALCON 9 launch vehicle from the Air Force Western Test Range (AFWTR). Payload-class satellites include a variety of spacecraft equipped with specific instruments for various scientific and technological missions. These include communications satellites like Starlink; space stations such as the ISS; scientific satellites like the Hubble; Earth observation satellites from companies like Planet Labs, Umbra, and HawkEye 360; GPS; miniature CubeSats for education and research; and military/defense satellites.

Loading next visibility...
Identifier
58315, 2023-174BM
Orbit
SSO
Last TLE update
6 hours ago
Origin
Manufacturer
Planet
Mission
Operational Commercial Imaging
Bus & Motor
CUBESAT 3U, Unknown motor
Mass
5.7 kg wet, 5.7 kg dry
Launch date (UTC)
2023-11-11 (2 years ago)
Launch vehicle
FALCON 9
Launch site
Air Force Western Test Range (AFWTR)
Object type
Payload
Rocket body
Debris
Shape & HBR
Box + 2 Pan, 0.1 m
Radar Cross Section
0.035 m², Medium (>0.1 m² and < 1m²)

Expand to show TLE details & history

TLE from 6 hours ago
0 FLOCK 4Q 6
1 58315U 23174BM  25211.22413157  .00080456  00000-0  13064-2 0  9994
2 58315  97.4049 292.1248 0006330 199.6370 160.4640 15.52429248 96123
Epoch: 2025-07-30T05:22Z
TLE epoch observation values (Epoch: 2025-07-30T05:22:44.967Z)
Latitude
-0.00002°
Longitude
-96.66899°
Altitude
416.821 km
Speed
7.659 km/s
True Right ascension
19h 28m 29s
True Declination
0° 00' 00"
Sunlit
Object was in full shadow at epoch
Visualization orbit readout
Latitude
49.44691°
Longitude
-105.08105°
Altitude
421.104 km
Speed
7.661 km/s
Apparent Right ascension
15h 57m 00s
Apparent Declination
8° 45' 59"
Sunlit
Object is in daylight
Visualization observer readout
Local Sidereal Time
01:19:52
Azimuth
314.162° NW
Elevation
-29.27°
Doppler factor
1
Orbital elements
Apogee altitude
410.853 km
Perigee altitude
402.264 km
Semi-major axis
6,784.695 km
Eccentricity
0.00063
Inclination
97.4049°
RAAN
292.1248°
Arg. of periapsis
199.637°
True anomaly
160.48824°
Mean anomaly
160.464°
Eccentric anomaly
160.47612°
Mean motion
3.88372 °/min
Orbital period
92.69 mins
BSTAR
0.0013064
Loading maneuver chart data...
Loading SW <> Apogee altitude chart data...
Loading historical data...
Loading historical data...
Loading historical data...
Loading historical data...
Loading historical data...
Loading historical data...
Loading historical data...
|